Regional Weather Roundup
Issued by NWS Little Rock, AR

Home | Current Version | Previous Version | Graphics & Text | Print | Product List | Glossary On
Versions: 1 2 3 4 5 6 7 8 9 10 11 12 13 14 15 16 17 18 19 20 21 22 23 24 25 26 27 28 29 30 31 32 33 34 35 36 37 38 39 40 41 42 43 44 45 46 47 48 49 50
867
ASUS44 KLZK 261905
RWRLZK

WEATHER ROUNDUP FOR ARKANSAS
NATIONAL WEATHER SERVICE LITTLE ROCK AR
200 PM CDT WED APR 26 2017

NOTE: "FAIR" INDICATES FEW OR NO CLOUDS BELOW 12,000 FEET WITH NO
SIGNIFICANT WEATHER AND/OR OBSTRUCTIONS TO VISIBILITY.

ARZ001-003-010-029-262000-
NORTHWEST ARKANSAS

CITY           SKY/WX    TMP DP  RH WIND       PRES   REMARKS
FAYETTEVILLE   LGT RAIN  50  50 100 NW10      29.53F
FORT SMITH     CLOUDY    56  51  84 W12       29.54S
HARRISON       LGT RAIN  57  57 100 VRB6      29.45F
BENTONVILLE    CLOUDY    48  45  87 NW8       29.56F
ROGERS         LGT RAIN  48  47  96 NW12      29.56F
SILOAM SPGS    CLOUDY    48  43  81 N12       29.57F
HIGHFILL       CLOUDY    49  48  97 N12       29.56R
SPRINGDALE     LGT RAIN  50  50 100 NW12G18   29.57R FOG
$$

ARZ004-005-016-262000-
NORTH CENTRAL ARKANSAS

CITY           SKY/WX    TMP DP  RH WIND       PRES   REMARKS
BATESVILLE     CLOUDY   N/A N/A N/A CALM      29.56F THUNDER
FLIPPIN        CLOUDY    57  52  82 E9G17     29.46F
MTN HOME       TSTM      57  56  96 SE10      29.49F FOG
$$

ARZ040-041-262000-
WEST CENTRAL ARKANSAS

CITY           SKY/WX    TMP DP  RH WIND       PRES   REMARKS
MENA           CLOUDY    61  61 100 W6        29.51R
MOUNT IDA      HVY RAIN  62  61  96 CALM      29.44F FOG
$$

ARZ009-017-025-026-028-262000-
NORTHEAST ARKANSAS

CITY           SKY/WX    TMP DP  RH WIND       PRES   REMARKS
JONESBORO      CLOUDY    74  64  71 S21       29.55F
NEWPORT        PTSUNNY   74  65  73 MISG        N/A
WALNUT RIDGE   CLOUDY    64  55  72 NW15      29.56F
BLYTHEVILLE    CLOUDY    76  65  68 S14G26    29.59F
$$

ARZ022-023-033-042-044-262000-
CENTRAL ARKANSAS

CITY           SKY/WX    TMP DP  RH WIND       PRES   REMARKS
LITTLE ROCK    CLOUDY    67  62  84 NW10      29.51F
N LITTLE ROCK    N/A     62  60  92 N6        29.50F
JACKSONVILLE   HVY RAIN  63  63 100 S5        29.52F FOG
CONWAY         FOG       63  63 100 SE5       29.49F VSB 3/4
SEARCY         CLOUDY    70  65  84 NW8       29.54F
HOT SPRINGS    TSTM      62  62 100 VRB3      29.50F FOG
RUSSELLVILLE   LGT RAIN  59  58  96 VRB5      29.49F
CLINTON          N/A     59  59 100 CALM      29.50F THUNDER
$$

ARZ036-262000-
EAST ARKANSAS

CITY           SKY/WX    TMP DP  RH WIND       PRES   REMARKS
WEST MEMPHIS   CLOUDY    77  65  66 S22       29.57F
$$

ARZ050-053-066-070-073-262000-
SOUTHWEST ARKANSAS

CITY           SKY/WX    TMP DP  RH WIND       PRES   REMARKS
ARKADELPHIA      N/A     73  66  78 NW12      29.47F
CAMDEN         CLOUDY    77  66  69 S8        29.47F
TEXARKANA      TSTM      68  65  90 N8        29.47R
EL DORADO      LGT RAIN  79  68  69 S15G25    29.48F
DE QUEEN       TSTM      64  64 100 CALM      29.45S FOG
$$

ARZ056-057-069-262000-
SOUTHEAST ARKANSAS

CITY           SKY/WX    TMP DP  RH WIND       PRES   REMARKS
PINE BLUFF     PTSUNNY   74  67  78 S16G25    29.52F
STUTTGART      CLOUDY    73  61  64 SE22      29.52F
MONTICELLO     CLOUDY    77  66  68 S9G23     29.55F

$$






USA.gov is the U.S. government's official web portal to all federal, state and local government web resources and services.